Wind_Speed
19 8 12 19 13 7 3 9 10 9 10 12 12 8 9 15 15 13 13 14 14 13 9 8 8 8 11 14 17 24 17 13 12 7 9 9 11 12 11 6 5 3 1 3
11 11 18 9 5 9 5 5 10 8 10 8 7 10 10 12 14 15 17 17 16 13 11 9 9 9 12 14 15 12 12 11 8 6 7 10 10 10 9 8 4 3 6 14
4 6 6 6 8 9 7 5 10 12 10 13 9 12 12 11 12 12 14 14 14 15 13 13 12 12 14 15 14 13 12 12 11 11 12 11 11 9 7 5 2 7 12 18
11 15 7 12 9 4 7 2 0 4 13 14 16 11 13 13 13 12 15 14 15 15 15 14 15 15 15 15 15 14 14 13 13 12 9 10 8 6 7 2 6 5 12 8
12 12 10 10 3 7 12 3 4 7 11 12 16 8 21 17 16 16 17 18 17 17 17 17 18 19 18 17 16 15 14 13 12 10 9 9 6 4 4 4 6 9 9 11
6 4 2 7 2 3 5 4 6 7 10 8 14 10 8 14 12 16 16 18 19 18 17 19 19 19 17 16 15 14 13 11 10 9 8 7 6 5 5 6 8 8 10 10
8 8 4 6 7 4 7 7 7 6 6 9 4 4 15 9 3 10 16 19 19 18 20 21 20 18 15 14 14 12 12 10 9 8 7 6 4 5 4 7 9 10 11 13
12 8 11 7 8 5 9 9 5 5 8 6 6 7 3 9 4 5 16 19 20 19 21 21 19 16 14 13 13 12 12 11 9 8 7 5 2 3 6 9 11 13 13 13
12 5 7 1 2 5 5 7 5 5 3 6 10 5 7 7 8 10 16 20 21 22 22 20 18 16 14 13 13 13 13 12 11 11 9 4 5 9 9 10 12 12 13 14
2 3 5 5 5 6 9 3 4 5 3 7 9 7 6 10 10 11 16 20 22 22 21 19 17 16 15 14 13 13 13 13 10 8 6 10 14 7 9 10 12 12 12 13
8 9 8 5 11 12 7 9 7 4 3 4 4 2 8 7 9 12 16 20 23 24 22 19 17 15 15 14 14 14 14 11 9 6 13 10 4 8 10 11 11 11 12 14
4 4 9 11 3 5 9 8 9 6 7 5 4 4 4 6 7 11 14 18 21 22 20 18 17 16 16 16 15 14 14 12 5 12 2 5 8 10 10 11 11 12 14 15
6 7 9 7 7 6 8 10 8 9 2 9 4 3 6 8 6 8 11 16 19 19 19 18 18 17 17 17 16 15 13 9 11 4 7 8 10 11 11 11 13 14 14 16
1 12 10 10 8 5 12 12 12 11 7 11 12 11 9 10 9 10 12 14 16 18 19 19 18 18 17 17 16 14 9 6 5 6 7 10 11 10 11 13 13 14 15 17
5 10 13 15 5 7 8 8 11 16 17 15 13 16 8 4 10 11 11 14 17 19 21 20 19 18 17 17 15 12 8 6 6 6 8 10 10 11 13 14 15 16 17 17
5 6 4 5 7 8 11 12 13 14 17 18 19 17 16 10 5 9 11 15 18 19 20 20 18 18 17 16 14 10 8 6 5 7 9 9 11 13 14 16 17 18 17 18
5 4 4 6 3 5 6 15 17 17 17 14 16 15 11 2 6 12 11 14 17 18 19 18 18 17 16 14 12 9 7 5 5 8 9 10 12 14 15 17 17 17 18 19
5 8 1 1 1 1 3 1 5 7 13 15 14 13 11 9 5 6 9 12 14 16 17 17 16 15 13 12 10 8 5 4 7 9 10 11 13 15 17 17 17 17 18 19
4 5 2 3 6 8 11 7 2 3 7 6 8 9 3 1 3 9 8 9 12 14 15 14 14 13 12 11 8 5 5 7 8 10 11 13 14 16 17 17 17 18 18 18
4 3 4 3 3 4 3 4 1 1 6 7 4 1 4 6 4 6 7 8 10 12 13 14 13 14 12 9 4 4 7 8 10 11 12 14 15 17 17 17 18 16 16 17
2 1 5 5 3 6 1 4 2 4 3 5 5 2 5 6 6 4 5 9 11 12 12 14 14 12 9 4 3 7 10 10 11 12 13 15 16 17 17 17 17 15 15 17
7 7 3 3 2 6 7 7 2 4 3 5 3 3 4 2 3 2 7 9 11 14 15 13 12 8 5 0 6 8 10 11 12 14 15 16 16 16 16 17 17 15 16 18
4 6 2 7 3 4 8 3 2 3 4 4 5 4 4 6 3 5 9 12 13 13 13 10 8 3 0 4 5 9 10 12 13 15 15 16 16 17 15 17 18 17 17 15
4 2 3 1 3 5 4 4 4 5 7 7 6 7 8 9 7 7 10 11 13 11 10 7 4 1 4 6 10 10 11 13 14 15 16 16 18 19 17 14 15 16 16 14
3 7 5 5 10 5 4 4 5 5 3 3 3 4 4 4 8 11 12 12 12 9 8 3 2 6 8 9 10 10 12 13 13 14 16 17 17 19 21 19 16 17 16 17
6 3 4 3 5 4 6 5 6 3 3 3 4 7 9 12 14 15 14 13 12 9 2 2 8 12 10 10 11 11 11 12 14 15 15 16 19 22 22 21 20 19 21 21
Wind_Direction
226 230 199 219 233 279 262 177 182 159 160 206 192 135 162 175 185 177 172 178 179 181 181 182 179 177 182 182 180 201 220 209 216 239 240 222 196 170 168 163 158 145 347 349
188 188 217 276 206 266 216 162 173 134 180 253 180 171 170 185 200 184 189 186 184 177 182 177 176 173 167 171 179 194 175 179 178 167 162 152 151 156 169 185 195 228 309 322
274 349 129 193 208 235 207 240 189 186 184 231 201 178 179 180 185 200 197 195 189 192 185 179 168 164 168 162 159 158 166 168 165 166 158 155 160 176 183 216 261 289 312 310
81 263 200 214 232 263 281 20 56 183 188 206 204 239 191 177 177 189 196 191 189 178 176 165 155 149 144 146 148 155 156 158 162 159 168 174 185 209 191 209 255 284 302 303
256 186 196 214 71 296 133 144 229 230 243 192 195 252 177 176 179 187 184 192 179 174 166 157 150 146 144 146 149 155 157 161 163 166 178 187 204 219 210 236 268 282 293 296
200 324 303 62 107 263 132 183 224 249 258 265 264 252 170 179 194 167 180 181 175 169 163 157 152 151 150 151 153 155 158 160 164 167 170 183 187 206 238 273 288 288 292 295
187 177 120 187 151 157 223 235 254 213 234 242 59 276 255 99 79 151 177 180 176 173 168 166 165 166 168 164 162 162 168 172 171 171 169 169 186 242 278 285 290 287 295 295
197 182 180 169 268 291 215 296 273 276 292 267 130 243 143 94 131 162 172 179 179 178 176 178 179 179 178 178 179 180 188 189 185 176 170 182 215 262 275 285 284 294 295 294
231 158 116 225 230 278 165 244 1 301 257 276 266 170 151 142 146 166 172 179 182 182 183 186 187 190 191 191 193 196 195 193 184 181 197 206 256 291 287 280 288 293 294 295
279 197 191 139 206 212 276 74 211 218 257 256 229 238 111 169 172 177 177 185 184 187 189 193 196 197 198 199 198 194 192 189 186 175 230 287 294 282 277 286 290 292 295 300
244 244 161 167 214 243 176 226 235 303 253 279 292 159 80 134 166 183 189 189 188 193 196 200 201 199 200 195 192 184 179 177 184 236 305 302 260 269 281 285 287 293 296 303
199 264 245 234 95 312 297 267 224 236 232 230 294 298 146 137 167 187 193 191 197 199 199 203 201 199 194 189 186 181 177 180 226 302 307 251 270 277 282 283 285 292 300 302
188 236 243 226 214 215 241 231 246 243 332 240 239 268 161 154 196 200 207 195 203 197 198 199 197 195 191 186 186 185 185 216 287 225 251 271 276 281 280 283 289 295 297 303
346 245 237 241 284 317 207 240 221 218 222 245 251 262 191 198 205 213 216 198 201 199 199 197 195 195 192 190 189 185 198 204 204 236 266 280 281 280 283 286 291 292 297 304
241 239 241 259 297 290 286 271 231 236 241 246 262 265 278 222 212 231 221 213 201 200 202 202 201 197 195 193 190 189 192 196 218 265 281 284 286 288 289 288 287 292 295 302
198 249 278 266 244 266 273 261 254 250 248 254 260 263 287 310 228 268 221 218 210 207 207 207 206 201 198 195 193 193 195 208 245 280 286 289 290 293 292 291 290 292 294 298
194 216 195 244 350 306 286 248 250 252 250 254 264 276 356 307 267 263 222 218 216 212 210 208 205 202 199 196 190 192 203 226 276 288 296 298 298 298 297 294 290 289 294 298
197 211 131 215 230 265 265 11 311 291 278 268 261 271 275 295 293 249 229 218 217 213 208 205 202 198 194 187 182 190 212 268 290 298 301 302 301 300 300 296 292 293 295 298
234 159 165 175 217 285 290 173 268 256 291 342 309 287 314 131 262 238 216 220 218 212 206 202 199 193 185 180 185 204 271 285 299 301 298 300 301 301 299 298 295 293 297 295
137 241 225 150 198 226 56 96 131 234 267 39 16 70 168 188 249 60 161 187 193 193 193 190 187 177 171 168 179 294 293 297 295 295 294 298 300 298 295 295 297 297 294 299
145 228 215 198 246 283 4 135 186 239 44 22 340 309 208 224 24 39 172 168 175 177 175 171 166 164 165 181 284 297 296 295 295 293 300 301 299 297 294 297 298 307 302 286
176 172 192 179 196 269 138 141 228 36 33 359 326 330 261 237 24 76 157 161 163 161 154 155 155 162 167 313 297 294 291 294 290 299 300 301 297 296 295 297 297 296 290 289
225 217 227 200 221 106 177 23 54 354 330 324 325 316 281 236 227 172 164 157 156 149 148 154 159 163 227 298 286 286 291 295 298 300 300 295 295 292 290 291 291 286 281 274
228 161 229 276 152 230 247 291 304 313 296 293 282 283 273 260 213 175 155 148 146 147 145 144 115 18 267 275 293 297 295 299 300 296 295 292 299 302 302 292 286 284 290 286
354 160 235 242 284 266 96 62 14 356 343 328 328 314 281 209 163 154 144 141 143 135 103 83 292 283 286 281 288 293 296 301 299 297 294 295 296 297 301 294 275 266 268 271
196 241 204 267 54 337 75 13 3 3 21 58 89 86 95 129 135 138 135 128 114 100 129 281 262 279 287 283 286 294 296 295 294 296 297 295 293 293 294 296 287 281 277 273
Height
1499 1497 1495 1491 1484 1482 1477 1479 1485 1484 1487 1490 1491 1497 1501 1506 1509 1514 1517 1522 1526 1530 1534 1537 1538 1540 1543 1545 1547 1545 1548 1551 1553 1555 1556 1557 1560 1562 1566 1568 1568 1568 1566 1566
1492 1497 1491 1483 1483 1482 1480 1483 1487 1484 1489 1491 1492 1496 1503 1508 1508 1511 1515 1519 1524 1529 1533 1534 1537 1539 1540 1543 1544 1545 1548 1550 1554 1557 1558 1560 1561 1564 1567 1567 1565 1565 1564 1563
1490 1489 1487 1487 1487 1485 1481 1484 1487 1486 1491 1491 1488 1492 1499 1502 1505 1509 1512 1516 1521 1527 1531 1534 1535 1536 1537 1539 1542 1546 1549 1552 1555 1557 1558 1560 1562 1563 1565 1565 1565 1562 1561 1561
1495 1494 1488 1487 1484 1482 1488 1481 1481 1484 1490 1495 1482 1494 1494 1497 1501 1508 1513 1516 1520 1524 1529 1532 1533 1536 1538 1541 1544 1547 1550 1552 1554 1556 1558 1559 1561 1562 1562 1563 1563 1562 1559 1559
1493 1488 1486 1485 1484 1486 1491 1485 1484 1484 1482 1496 1483 1488 1486 1493 1499 1504 1510 1515 1519 1524 1527 1530 1532 1536 1539 1541 1544 1547 1549 1551 1552 1555 1557 1558 1559 1560 1560 1560 1560 1560 1558 1556
1504 1489 1484 1483 1489 1489 1489 1489 1487 1485 1484 1495 1480 1482 1480 1483 1483 1495 1507 1513 1518 1522 1526 1529 1533 1536 1538 1540 1543 1545 1548 1550 1551 1553 1554 1556 1557 1558 1559 1559 1558 1557 1556 1554
1487 1485 1489 1490 1491 1491 1489 1491 1502 1505 1499 1502 1482 1490 1480 1482 1487 1487 1502 1510 1516 1521 1524 1528 1532 1535 1537 1539 1542 1544 1547 1549 1551 1552 1552 1553 1554 1555 1556 1557 1556 1554 1552 1551
1488 1498 1487 1488 1486 1486 1488 1485 1498 1517 1507 1493 1486 1493 1480 1485 1492 1494 1500 1508 1514 1519 1523 1526 1530 1533 1536 1539 1541 1544 1546 1548 1549 1550 1550 1551 1552 1554 1554 1553 1552 1550 1548 1546
1483 1486 1486 1490 1490 1490 1488 1496 1488 1497 1502 1510 1488 1475 1486 1488 1492 1496 1500 1506 1512 1517 1521 1524 1528 1531 1534 1537 1539 1541 1544 1546 1547 1546 1546 1547 1548 1548 1548 1548 1547 1545 1543 1541
1474 1487 1485 1492 1493 1494 1493 1487 1501 1498 1520 1513 1477 1477 1472 1488 1490 1494 1497 1502 1509 1514 1519 1522 1526 1530 1533 1535 1538 1540 1542 1543 1543 1543 1543 1544 1544 1545 1545 1544 1543 1541 1538 1536
1477 1483 1491 1492 1491 1483 1492 1493 1492 1491 1493 1508 1502 1479 1472 1478 1485 1491 1494 1500 1505 1510 1515 1520 1524 1528 1531 1534 1535 1537 1539 1540 1541 1541 1540 1540 1542 1542 1541 1540 1539 1537 1534 1532
1480 1480 1488 1487 1481 1485 1483 1482 1484 1501 1501 1499 1502 1491 1479 1481 1486 1489 1492 1497 1502 1507 1512 1517 1522 1526 1528 1530 1533 1535 1536 1535 1536 1537 1538 1539 1539 1539 1538 1536 1534 1532 1530 1527
1483 1486 1494 1490 1489 1488 1487 1483 1484 1485 1495 1499 1508 1492 1481 1485 1489 1489 1490 1494 1499 1504 1510 1515 1519 1522 1525 1527 1529 1531 1530 1531 1532 1535 1537 1537 1536 1535 1533 1532 1530 1527 1525 1522
1487 1482 1483 1491 1480 1474 1485 1482 1481 1487 1500 1496 1486 1479 1479 1482 1485 1488 1491 1492 1498 1504 1509 1513 1517 1520 1522 1524 1526 1526 1527 1529 1531 1533 1533 1533 1532 1530 1528 1526 1524 1522 1520 1517
1486 1486 1480 1478 1482 1484 1480 1480 1481 1486 1484 1489 1482 1476 1468 1472 1479 1484 1488 1492 1498 1503 1506 1510 1514 1517 1519 1521 1523 1525 1526 1527 1529 1530 1530 1529 1527 1525 1523 1522 1520 1517 1515 1512
1485 1485 1486 1491 1485 1487 1487 1481 1480 1478 1478 1475 1473 1474 1470 1472 1478 1483 1486 1490 1495 1500 1504 1508 1511 1515 1517 1520 1521 1523 1524 1525 1526 1526 1526 1524 1522 1520 1519 1517 1515 1512 1510 1508
1483 1485 1493 1495 1493 1491 1502 1483 1477 1473 1472 1474 1478 1471 1473 1476 1481 1482 1484 1490 1493 1497 1501 1506 1510 1513 1516 1518 1520 1521 1522 1522 1522 1522 1521 1520 1518 1516 1514 1512 1510 1508 1505 1502
1484 1486 1493 1498 1510 1516 1471 1472 1473 1474 1470 1467 1468 1470 1474 1478 1479 1483 1485 1489 1493 1497 1500 1504 1508 1512 1514 1516 1517 1518 1519 1519 1518 1518 1516 1516 1514 1513 1511 1508 1505 1502 1500 1497
1483 1488 1501 1508 1493 1479 1472 1469 1476 1477 1474 1469 1471 1470 1474 1482 1485 1484 1485 1489 1492 1496 1500 1504 1507 1510 1512 1514 1516 1517 1517 1516 1515 1515 1514 1513 1510 1508 1506 1503 1501 1497 1495 1492
1487 1487 1490 1503 1503 1506 1473 1476 1479 1478 1479 1475 1476 1476 1480 1484 1484 1480 1486 1489 1492 1495 1499 1502 1506 1508 1509 1511 1513 1514 1515 1513 1512 1511 1509 1507 1505 1503 1501 1498 1494 1491 1489 1487
1494 1496 1497 1496 1502 1483 1469 1477 1480 1484 1484 1479 1479 1479 1481 1482 1485 1486 1487 1489 1492 1495 1499 1502 1504 1506 1509 1510 1510 1512 1512 1511 1509 1507 1505 1503 1501 1499 1497 1493 1490 1487 1485 1481
1485 1491 1501 1495 1509 1499 1475 1479 1481 1480 1479 1481 1481 1481 1482 1483 1485 1486 1488 1490 1493 1495 1497 1501 1505 1506 1506 1507 1509 1510 1510 1509 1506 1503 1501 1498 1497 1494 1491 1489 1486 1483 1481 1477
1477 1472 1475 1479 1476 1475 1476 1477 1480 1481 1482 1482 1483 1483 1484 1484 1486 1487 1489 1491 1494 1496 1499 1502 1503 1506 1506 1505 1506 1506 1505 1504 1501 1498 1497 1495 1491 1487 1485 1484 1481 1478 1474 1472
1470 1475 1475 1477 1468 1472 1476 1478 1479 1480 1481 1482 1482 1482 1482 1483 1485 1488 1490 1493 1496 1499 1501 1501 1502 1505 1505 1503 1502 1502 1500 1498 1497 1495 1493 1491 1486 1482 1478 1477 1476 1474 1471 1469
1469 1474 1471 1471 1470 1471 1476 1480 1481 1481 1481 1481 1481 1481 1481 1482 1485 1489 1493 1496 1498 1499 1500 1502 1504 1504 1502 1500 1499 1498 1496 1494 1493 1491 1489 1485 1482 1476 1472 1470 1468 1468 1466 1465
1470 1468 1474 1473 1476 1476 1479 1481 1481 1481 1481 1482 1482 1482 1482 1484 1487 1490 1494 1496 1498 1499 1500 1501 1500 1498 1498 1498 1496 1494 1492 1491 1489 1486 1483 1480 1476 1472 1468 1465 1462 1461 1459 1457